When you browse on this site, cookies collect data to enhance your experience and personalize the content and advertising you see.
Visit our Privacy Policy to learn more. By continuing to use the site, you agree to this use of cookies and data.
  • In Hungary
  • List of Countries
  • For 7 days
  • Water Temperature
  • Weather Map
  • News
  • Weather Widgets
  • user-avatar
    Login

    Hourly Weather Narva-Joesuu

    Today, 10 December, Tuesday

    Time Temperature Precipitation Wind Pressure Humidity
    00:00 +3°C° 0 mm 7 mps 745 mmHg 81%
    01:00 +3°C° 0 mm 6 mps 745 mmHg 81%
    02:00 +3°C° 0 mm 6 mps 746 mmHg 80%
    03:00 +3°C° 0.2 mm 6 mps 746 mmHg 81%
    04:00 +3°C° 0.2 mm 6 mps 746 mmHg 81%
    05:00 +3°C° 0.2 mm 6 mps 747 mmHg 82%
    06:00 +3°C° 0.2 mm 7 mps 747 mmHg 83%
    07:00 +3°C° 0.2 mm 7 mps 748 mmHg 84%
    08:00 +3°C° 0.2 mm 7 mps 749 mmHg 84%
    09:00 +2°C° 1 mm 7 mps 749 mmHg 87%
    10:00 0°C° 1 mm 7 mps 750 mmHg 89%
    11:00 0°C° 1 mm 7 mps 751 mmHg 91%
    12:00 -1°C° 0.5 mm 6 mps 751 mmHg 90%
    13:00 -2°C° 0.5 mm 6 mps 752 mmHg 90%
    14:00 -2°C° 0.5 mm 5 mps 753 mmHg 89%
    15:00 -2°C° 0 mm 5 mps 754 mmHg 86%
    16:00 -2°C° 0 mm 5 mps 755 mmHg 83%
    17:00 -2°C° 0 mm 4 mps 755 mmHg 79%
    18:00 -3°C° 0 mm 4 mps 757 mmHg 80%
    19:00 -3°C° 0 mm 4 mps 758 mmHg 81%
    20:00 -2°C° 0 mm 3 mps 759 mmHg 82%
    21:00 -4°C° 0 mm 3 mps 759 mmHg 81%
    22:00 -3°C° 0 mm 2 mps 760 mmHg 79%
    23:00 -3°C° 0 mm 2 mps 760 mmHg 78%

    Tomorrow, 11 December, Wednesday

    Time Temperature Precipitation Wind Pressure Humidity
    00:00 -1°C° 0 mm 1 mps 761 mmHg 77%
    01:00 -1°C° 0 mm 1 mps 762 mmHg 76%
    02:00 -2°C° 0 mm 0 mps 762 mmHg 76%
    03:00 -1°C° 0 mm 1 mps 762 mmHg 76%
    04:00 -1°C° 0 mm 1 mps 762 mmHg 76%
    05:00 -3°C° 0 mm 2 mps 762 mmHg 76%
    06:00 -4°C° 0 mm 3 mps 762 mmHg 76%
    07:00 -4°C° 0 mm 3 mps 763 mmHg 75%
    08:00 -4°C° 0 mm 4 mps 763 mmHg 75%
    09:00 -4°C° 0 mm 4 mps 763 mmHg 72%
    10:00 -4°C° 0 mm 5 mps 763 mmHg 70%
    11:00 -4°C° 0 mm 5 mps 763 mmHg 68%
    12:00 -4°C° 0 mm 5 mps 762 mmHg 67%
    13:00 -4°C° 0 mm 5 mps 762 mmHg 67%
    14:00 -4°C° 0 mm 6 mps 762 mmHg 66%
    15:00 -4°C° 0 mm 6 mps 762 mmHg 67%
    16:00 -4°C° 0 mm 6 mps 761 mmHg 67%
    17:00 -4°C° 0 mm 6 mps 761 mmHg 68%
    18:00 -4°C° 0 mm 6 mps 761 mmHg 70%
    19:00 -4°C° 0 mm 6 mps 761 mmHg 71%
    20:00 -4°C° 0 mm 6 mps 761 mmHg 73%
    21:00 -4°C° 0 mm 6 mps 761 mmHg 76%
    22:00 -3°C° 0 mm 6 mps 760 mmHg 79%
    23:00 -3°C° 0 mm 6 mps 760 mmHg 83%

    Day after tomorrow, 12 December, Thursday

    Time Temperature Precipitation Wind Pressure Humidity
    00:00 -3°C° 0 mm 6 mps 760 mmHg 81%
    01:00 -3°C° 0 mm 6 mps 760 mmHg 80%
    02:00 -2°C° 0 mm 6 mps 760 mmHg 78%
    03:00 -3°C° 0 mm 6 mps 760 mmHg 79%
    04:00 -3°C° 0 mm 6 mps 759 mmHg 80%
    05:00 -3°C° 0 mm 6 mps 759 mmHg 82%
    06:00 -3°C° 0 mm 6 mps 759 mmHg 80%
    07:00 -3°C° 0 mm 6 mps 759 mmHg 79%
    08:00 -3°C° 0 mm 6 mps 760 mmHg 78%
    09:00 -3°C° 0 mm 6 mps 759 mmHg 79%
    10:00 -3°C° 0 mm 6 mps 759 mmHg 79%
    11:00 -3°C° 0 mm 6 mps 759 mmHg 80%
    12:00 -3°C° 0 mm 6 mps 759 mmHg 81%
    13:00 -3°C° 0 mm 6 mps 759 mmHg 82%
    14:00 -3°C° 0 mm 6 mps 758 mmHg 83%
    15:00 -1°C° 0 mm 5 mps 758 mmHg 87%
    16:00 -1°C° 0 mm 5 mps 758 mmHg 90%
    17:00 0°C° 0 mm 5 mps 757 mmHg 94%
    18:00 0°C° 0.1 mm 5 mps 757 mmHg 95%
    19:00 -1°C° 0.1 mm 6 mps 756 mmHg 95%
    20:00 -1°C° 0.1 mm 6 mps 756 mmHg 96%
    21:00 -1°C° 0.4 mm 6 mps 755 mmHg 96%
    22:00 -1°C° 0.4 mm 6 mps 755 mmHg 96%
    23:00 -1°C° 0.4 mm 6 mps 754 mmHg 96%

    13 December, Friday

    Time Temperature Precipitation Wind Pressure Humidity
    00:00 -1°C° 0.1 mm 6 mps 754 mmHg 94%
    01:00 -1°C° 0.1 mm 6 mps 754 mmHg 91%
    02:00 -1°C° 0.1 mm 6 mps 754 mmHg 89%
    03:00 -1°C° 0 mm 6 mps 754 mmHg 89%
    04:00 -1°C° 0 mm 6 mps 754 mmHg 89%
    05:00 -1°C° 0 mm 6 mps 753 mmHg 89%
    06:00 -2°C° 0 mm 6 mps 753 mmHg 87%
    07:00 -2°C° 0 mm 6 mps 753 mmHg 86%
    08:00 -2°C° 0 mm 6 mps 753 mmHg 84%
    09:00 -1°C° 0 mm 6 mps 753 mmHg 85%
    10:00 -1°C° 0 mm 6 mps 753 mmHg 86%
    11:00 +1°C° 0 mm 6 mps 753 mmHg 87%
    12:00 -1°C° 0 mm 6 mps 753 mmHg 86%
    13:00 -1°C° 0 mm 6 mps 753 mmHg 85%
    14:00 -1°C° 0 mm 6 mps 753 mmHg 85%
    15:00 -1°C° 0 mm 6 mps 752 mmHg 86%
    16:00 -1°C° 0 mm 6 mps 752 mmHg 86%
    17:00 -1°C° 0 mm 6 mps 752 mmHg 87%
    18:00 -1°C° 0 mm 6 mps 752 mmHg 89%
    19:00 -1°C° 0 mm 6 mps 752 mmHg 90%
    20:00 -1°C° 0 mm 6 mps 752 mmHg 92%
    21:00 -1°C° 0 mm 7 mps 752 mmHg 92%
    22:00 -1°C° 0 mm 7 mps 752 mmHg 91%
    23:00 -2°C° 0 mm 7 mps 751 mmHg 91%

    14 December, Saturday

    Time Temperature Precipitation Wind Pressure Humidity
    00:00 -2°C° 0 mm 7 mps 751 mmHg 92%
    01:00 -2°C° 0 mm 7 mps 751 mmHg 93%
    02:00 -2°C° 0 mm 7 mps 750 mmHg 94%
    03:00 -2°C° 0.4 mm 7 mps 750 mmHg 93%
    04:00 -2°C° 0.4 mm 7 mps 750 mmHg 92%
    05:00 -2°C° 0.4 mm 8 mps 750 mmHg 91%
    06:00 -2°C° 0 mm 7 mps 750 mmHg 91%
    07:00 -2°C° 0 mm 7 mps 750 mmHg 92%
    08:00 -2°C° 0 mm 7 mps 750 mmHg 93%
    09:00 -2°C° 0 mm 7 mps 750 mmHg 89%
    10:00 -1°C° 0 mm 7 mps 750 mmHg 85%
    11:00 -1°C° 0 mm 7 mps 750 mmHg 82%
    12:00 -1°C° 0 mm 7 mps 750 mmHg 82%
    13:00 -1°C° 0 mm 7 mps 750 mmHg 83%
    14:00 -1°C° 0 mm 7 mps 750 mmHg 84%
    15:00 -1°C° 0 mm 7 mps 750 mmHg 84%
    16:00 -1°C° 0 mm 7 mps 750 mmHg 84%
    17:00 -1°C° 0 mm 7 mps 750 mmHg 85%
    18:00 -1°C° 0 mm 7 mps 750 mmHg 84%
    19:00 -1°C° 0 mm 7 mps 750 mmHg 84%
    20:00 -1°C° 0 mm 7 mps 750 mmHg 84%
    21:00 -1°C° 0 mm 7 mps 749 mmHg 85%
    22:00 -1°C° 0 mm 7 mps 749 mmHg 86%
    23:00 -1°C° 0 mm 7 mps 749 mmHg 87%

    15 December, Sunday

    Time Temperature Precipitation Wind Pressure Humidity
    00:00 -2°C° 0.1 mm 7 mps 749 mmHg 89%
    01:00 -2°C° 0.1 mm 7 mps 748 mmHg 91%
    02:00 -2°C° 0.1 mm 7 mps 748 mmHg 93%
    03:00 -2°C° 0.3 mm 7 mps 748 mmHg 94%
    04:00 -2°C° 0.3 mm 7 mps 747 mmHg 95%
    05:00 -2°C° 0.3 mm 7 mps 747 mmHg 96%
    06:00 -2°C° 0.1 mm 7 mps 746 mmHg 96%
    07:00 -2°C° 0.1 mm 7 mps 746 mmHg 96%
    08:00 -1°C° 0.1 mm 7 mps 746 mmHg 95%
    09:00 -1°C° 0.2 mm 7 mps 745 mmHg 95%
    10:00 -1°C° 0.2 mm 7 mps 745 mmHg 95%
    11:00 -1°C° 0.2 mm 7 mps 745 mmHg 95%
    12:00 -1°C° 0.2 mm 7 mps 744 mmHg 95%
    13:00 +1°C° 0.2 mm 6 mps 744 mmHg 95%
    14:00 +1°C° 0.2 mm 6 mps 743 mmHg 96%
    15:00 +1°C° 0.3 mm 6 mps 743 mmHg 95%
    16:00 +1°C° 0.3 mm 5 mps 743 mmHg 93%
    17:00 +1°C° 0.3 mm 5 mps 743 mmHg 92%
    18:00 +1°C° 0.4 mm 5 mps 744 mmHg 93%
    19:00 -1°C° 0.4 mm 6 mps 744 mmHg 95%
    20:00 -1°C° 0.4 mm 6 mps 744 mmHg 96%
    21:00 -1°C° 0.5 mm 6 mps 744 mmHg 96%
    22:00 -1°C° 0.5 mm 6 mps 745 mmHg 95%
    23:00 +1°C° 0.5 mm 6 mps 745 mmHg 95%
    Show more